{"data":{"norad_id":69080,"epoch":"2026-05-25T04:39:17.334432Z","epoch_age_seconds":54690,"freshness":"FRESH","line1":"1 69080U 26104H   26145.19395063  .00000080  00000+0  31344-4 0  9996","line2":"2 69080  88.9869 344.2480 0004224 154.2288 205.9112 14.19321456  1827","mean_motion":14.19321456,"eccentricity":0.0004224,"inclination_deg":88.9869,"raan_deg":344.248,"arg_perigee_deg":154.2288,"mean_anomaly_deg":205.9112,"bstar":3.1344e-5,"rev_number":182,"period_min":101.45693168469,"perigee_km":824.60476387513,"apogee_km":830.69221145511,"semimajor_km":7205.7854876651,"source":"CELESTRAK","updated_at":"2026-05-25T13:38:09.050455Z"}}